Beaumont, TX

10:08 AM CDT on April 22, 2018 (GMT -0500)
Southeast Texas Regional

Weather History for KBPT - December, 2012

Change the Weather History Date:

Friday, December 21, 2012

  Actual Average Record
Temperature  
Mean Temperature 47 °F 53 °F  
Max Temperature 62 °F 63 °F 80 °F (1905)
Min Temperature 32 °F 44 °F 20 °F (1973)
Degree Days  
Heating Degree Days 18 12  
Month to date heating degree days 119 227  
Since 1 July heating degree days 312 422  
Cooling Degree Days 0 1  
Month to date cooling degree days 58 21  
Year to date cooling degree days 3193 2876  
Moisture  
Dew Point 26 °F    
Average Humidity 52    
Maximum Humidity 85    
Minimum Humidity 19    
Precipitation  
Precipitation 0.00 in 0.17 in 6.41 in (1923)
Month to date precipitation 5.18 3.50  
Year to date precipitation 62.54 58.68  
Snow  
Snow 0.00 in 0.00 in T in (1929)
Month to date snowfall 0.0 0.0  
Since 1 July snowfall 0.0 0.0  
Snow Depth 0.00 in    
Sea Level Pressure  
Sea Level Pressure 30.43 in    
Wind  
Wind Speed 4 mph (WNW)    
Max Wind Speed 10 mph    
Max Gust Speed 14 mph    
Visibility 10 miles    
Events      
T = Trace of Precipitation, MM = Missing Value Source: NWS Daily Summary

Daily Weather History Graph

Daily Weather History Graph

Search for Another Location

Airport or City:

Astronomy

Dec. 21, 2012 Rise Set
Actual Time 7:07 AM CST 5:21 PM CST
Civil Twilight 6:41 AM CST 5:47 PM CST
Nautical Twilight 6:11 AM CST 6:17 PM CST
Astronomical Twilight 5:42 AM CST 6:46 PM CST
Moon 12:52 PM CST (12/21) 1:13 AM CST (12/21)
Length of Visible Light 11h 05m
Length of Day
10h 13m
Waxing Gibbous, 65% of the Moon is Illuminated
Dec 21
Waxing Gibbous
Dec 28
Full
Jan 4
Last Quarter
Jan 11
New
Jan 18
First Quarter

Hourly Weather History & Observations

Time (CST) Temp. Windchill Dew Point Humidity Pressure Visibility Wind Dir Wind Speed Gust Speed Precip Events Conditions
12:53 AM 37.0 °F 32.4 °F 21.9 °F 54% 30.42 in 10.0 mi WNW 5.8 mph - N/A   Clear
1:53 AM 32.0 °F 26.4 °F 25.0 °F 75% 30.44 in 10.0 mi SW 5.8 mph - N/A   Clear
2:53 AM 35.1 °F 30.1 °F 25.0 °F 67% 30.44 in 10.0 mi WNW 5.8 mph - N/A   Clear
3:53 AM 34.0 °F 28.8 °F 21.9 °F 61% 30.44 in 10.0 mi WNW 5.8 mph - N/A   Clear
4:53 AM 34.0 °F 28.8 °F 21.0 °F 59% 30.44 in 10.0 mi WNW 5.8 mph - N/A   Clear
5:53 AM 33.8 °F 28.6 °F 21.2 °F 60% 30.45 in 10.0 mi NW 5.8 mph - N/A   Clear
6:53 AM 32.0 °F 27.5 °F 24.1 °F 73% 30.48 in 10.0 mi West 4.6 mph - N/A   Clear
7:53 AM 34.0 °F 28.8 °F 23.0 °F 64% 30.50 in 10.0 mi WNW 5.8 mph - N/A   Clear
8:53 AM 41.0 °F 38.0 °F 25.0 °F 53% 30.52 in 10.0 mi NW 4.6 mph - N/A   Clear
9:53 AM 46.9 °F - 24.1 °F 41% 30.52 in 10.0 mi NW 3.5 mph - N/A   Clear
10:53 AM 53.1 °F - 23.0 °F 31% 30.50 in 10.0 mi Calm Calm - N/A   Clear
11:53 AM 57.0 °F - 19.0 °F 23% 30.46 in 10.0 mi NNW 9.2 mph - 0.01 in   Clear
12:53 PM 59.0 °F - 19.0 °F 21% 30.42 in 10.0 mi North 9.2 mph - N/A   Clear
1:53 PM 61.0 °F - 19.0 °F 20% 30.40 in 10.0 mi NNE 3.5 mph - N/A   Clear
2:53 PM 62.1 °F - 19.9 °F 20% 30.38 in 10.0 mi Calm Calm - N/A   Clear
3:53 PM 61.0 °F - 21.0 °F 21% 30.37 in 10.0 mi Calm Calm - N/A   Clear
4:53 PM 61.0 °F - 18.0 °F 19% 30.37 in 10.0 mi Calm Calm - N/A   Clear
5:53 PM 48.0 °F - 30.9 °F 52% 30.38 in 10.0 mi South 5.8 mph - N/A   Clear
6:53 PM 44.1 °F 42.5 °F 34.0 °F 68% 30.39 in 8.0 mi SSW 3.5 mph - N/A   Clear
7:53 PM 45.0 °F 42.6 °F 35.1 °F 68% 30.39 in 10.0 mi SW 4.6 mph - N/A   Clear
8:53 PM 42.1 °F 40.2 °F 36.0 °F 79% 30.40 in 10.0 mi SW 3.5 mph - N/A   Clear
9:53 PM 39.9 °F - 36.0 °F 86% 30.40 in 10.0 mi Calm Calm - N/A   Clear
10:53 PM 43.0 °F - 36.0 °F 76% 30.39 in 10.0 mi Calm Calm - N/A   Clear
11:53 PM 39.0 °F - 36.0 °F 89% 30.39 in 10.0 mi Calm Calm - N/A   Clear